Location: The Saddle
(36.8333°N, 80.3417°W)
Time: 08:07:40
(UTC-04:00)

Vanguard 2 Rocket - Pass Details

Date: 08 February 2023
Orbit: 555 x 3316 km, 32.9° (Epoch: 27 March)

Event Time Altitude Azimuth Distance (km) Brightness Sun altitude
Rises 06:40:15 0° 216° (SW) 5,981 10.8 -8.0°
Reaches altitude 10° 06:45:46 10° 205° (SSW) 4,441 10.3 -6.9°
Maximum altitude 06:53:57 23° 159° (SSE) 2,645 9.8 -5.3°
Drops below altitude 10° 06:59:30 10° 108° (ESE) 2,909 11.5 -4.3°
Sets 07:02:14 0° 93° (E) 3,558 12.0 -3.7°
